Weather History for Milford, UT

Change the Weather History Date:

Monday, January 21, 2013

  Actual Average Record
Temperature  
Mean Temperature 6 °F -  
Max Temperature 21 °F 40 °F 55 °F (2003)
Min Temperature -8 °F 19 °F -8 °F (2013)
Degree Days  
Heating Degree Days 58    
Moisture  
Dew Point -3 °F    
Average Humidity 74    
Maximum Humidity 85    
Minimum Humidity 49    
Precipitation  
Precipitation 0.00 in - - ()
Sea Level Pressure  
Sea Level Pressure 30.63 in    
Wind  
Wind Speed 4 mph (NNE)    
Max Wind Speed 9 mph    
Max Gust Speed -    
Visibility 6 miles    
Events Snow    
Averages and records for this station are not official NWS values.
T = Trace of Precipitation, MM = Missing Value Source: NWS Daily Summary

Daily Weather History Graph

Daily Weather History Graph

Search for Another Location

Airport:

Trip Planner

Search our weather history database for the weather conditions in past years. The results will help you decide how hot, cold, wet, or windy it might be!

Date:

Astronomy

Jan. 21, 2013 Rise Set
Actual Time 7:45 AM MST 5:42 PM MST
Civil Twilight 7:16 AM MST 6:10 PM MST
Nautical Twilight 6:44 AM MST 6:43 PM MST
Astronomical Twilight 6:12 AM MST 7:14 PM MST
Moon 1:25 PM MST (1/21) 3:16 AM MST (1/21)
Length of Visible Light 10h 54m
Length of Day
9h 57m
Waxing Gibbous, 75% of the Moon is Illuminated
Jan 21
Waxing Gibbous
Jan 26
Full
Feb 3
Last Quarter
Feb 10
New
Feb 17
First Quarter

Hourly Weather History & Observations

Time (MST) Temp. Windchill Dew Point Humidity Pressure Visibility Wind Dir Wind Speed Gust Speed Precip Events Conditions
12:52 AM -4.0 °F -16.3 °F -9.0 °F 79% 30.68 in 5.0 mi North 5.8 mph - N/A   Haze
1:52 AM -2.9 °F -11.2 °F -7.1 °F 82% 30.67 in 4.0 mi NE 3.5 mph - N/A   Clear
2:52 AM -6.0 °F - -9.9 °F 83% 30.68 in 3.0 mi Calm Calm - N/A   Clear
3:52 AM -7.1 °F - -11.0 °F 83% 30.67 in 2.0 mi Calm Calm - N/A   Clear
4:00 AM -7.6 °F - -13.0 °F 77% 30.41 in 4.0 mi Calm Calm - N/A   Haze
4:52 AM -4.0 °F -12.4 °F -9.0 °F 79% 30.66 in 5.0 mi North 3.5 mph - N/A   Haze
5:52 AM -4.0 °F -16.3 °F -8.0 °F 83% 30.70 in 3.0 mi NNE 5.8 mph - N/A   Clear
6:16 AM -5.8 °F -14.5 °F -11.2 °F 77% 30.43 in 4.0 mi ENE 3.5 mph - N/A   Haze
6:25 AM -5.8 °F - -11.2 °F 77% 30.44 in 4.0 mi Calm Calm - N/A   Haze
6:52 AM -8.0 °F - -13.0 °F 79% 30.75 in 2.5 mi Calm Calm - N/A   Haze
7:15 AM -2.2 °F - -5.8 °F 85% 30.43 in 3.0 mi Calm Calm - N/A   Clear
7:52 AM -6.0 °F -14.7 °F -9.9 °F 83% 30.74 in 2.5 mi North 3.5 mph - N/A   Clear
8:07 AM -5.8 °F -18.4 °F -9.4 °F 84% 30.43 in 3.0 mi North 5.8 mph - N/A   Haze
8:52 AM -4.0 °F -12.4 °F -8.0 °F 83% 30.75 in 5.0 mi SSW 3.5 mph - N/A   Clear
9:52 AM 7.0 °F 0.1 °F 1.0 °F 77% 30.73 in 5.0 mi NE 3.5 mph - 0.00 in Snow Light Snow
10:52 AM 10.9 °F 1.4 °F 3.9 °F 73% 30.72 in 7.0 mi NNE 5.8 mph - 0.00 in   Clear
11:52 AM 10.9 °F 2.9 °F 3.0 °F 70% 30.69 in 7.0 mi NE 4.6 mph - N/A   Clear
12:52 PM 17.1 °F - 6.1 °F 62% 30.66 in 9.0 mi Calm Calm - N/A   Clear
1:52 PM 19.0 °F 11.1 °F 8.1 °F 62% 30.62 in 10.0 mi NE 5.8 mph - N/A   Clear
2:52 PM 19.9 °F 10.1 °F 9.0 °F 62% 30.61 in 10.0 mi North 8.1 mph - N/A   Clear
3:52 PM 19.0 °F 8.2 °F 8.1 °F 62% 30.62 in 10.0 mi North 9.2 mph - 0.00 in   Clear
4:52 PM 19.0 °F 11.1 °F 8.1 °F 62% 30.60 in 8.0 mi NE 5.8 mph - N/A   Clear
5:52 PM 14.0 °F - 6.1 °F 71% 30.61 in 7.0 mi Calm Calm - N/A   Clear
6:52 PM 6.1 °F -4.3 °F 1.9 °F 83% 30.67 in 6.0 mi North 5.8 mph - N/A   Clear
7:52 PM 6.1 °F -7.8 °F 1.0 °F 80% 30.66 in 6.0 mi NNW 9.2 mph - N/A   Haze
8:52 PM 1.0 °F -8.7 °F -4.0 °F 79% 30.69 in 6.0 mi South 4.6 mph - N/A   Haze
9:52 PM 6.1 °F -2.8 °F 1.0 °F 80% 30.61 in 9.0 mi Variable 4.6 mph - N/A   Clear
10:52 PM 3.0 °F -9.3 °F -2.0 °F 80% 30.61 in 5.0 mi SSW 6.9 mph - N/A   Haze
11:52 PM -0.0 °F -11.6 °F -5.1 °F 79% 30.62 in 9.0 mi North 5.8 mph - N/A   Clear